User: anonymous   Login
Location: Argonnex
(45.9500°N, 6.1333°E)
Time: 21:08:50
(UTC+00:00)
Language:

CZ-6A DEB - Orbit

View from above orbital plane
View from above orbital plane
View from above satellite
View from above satellite

Ground track
Ground track

The orbit data is extracted from the following two-line orbital elements,

1 54323U 22151BS  24058.44183639  .00000732  00000-0  45316-3 0  9999
2 54323  98.8156  61.5093 0054531 179.1798 180.9470 14.07603062 65896
Epoch (UTC): 27 February 2024 10:36:14
Eccentricity: 0.0054531
inclination: 98.8156°
perigee height: 828 km
apogee height: 907 km
right ascension of ascending node: 61.5093°
argument of perigee: 179.1798°
revolutions per day: 14.07603062
mean anomaly at epoch: 180.9470°
orbit number at epoch: 6589

The dashed part of the orbit path shows where the satellite is in the earth's shadow,  

DLR